Stations météo

Publicité
St-Nazaire, France (7217): Température de l'air & dewpoint: 21.05.2019 05:00:00 - 27.05.2019 05:00:00 (CEST)St-Nazaire, France (7217): Température de l'air 5cm: 21.05.2019 05:00:00 - 27.05.2019 05:00:00 (CEST)St-Nazaire, France (7217): Température de l'air -20cm: 21.05.2019 05:00:00 - 27.05.2019 05:00:00 (CEST)St-Nazaire, France (7217): Vitesse du vent & gusts: 21.05.2019 05:00:00 - 27.05.2019 05:00:00 (CEST)St-Nazaire, France (7217): Direction du vent: 21.05.2019 05:00:00 - 27.05.2019 05:00:00 (CEST)St-Nazaire, France (7217): reduced air pressure: 21.05.2019 05:00:00 - 27.05.2019 05:00:00 (CEST)St-Nazaire, France (7217): visibility: 21.05.2019 05:00:00 - 27.05.2019 05:00:00 (CEST)St-Nazaire, France (7217): Quantités de précipitations: 21.05.2019 05:00:00 - 27.05.2019 05:00:00 (CEST)
Date & Time tt [°C] td [°C] tt 5cm [°C] tt -20cm [°C] ff [km/h] ff [knt] fx [km/h] fx [knt] dd ppp [hPa] vv [km] rr [mm]
27.05.2019 05:00:00 - - - - - - - - - - - -
27.05.2019 04:00:00 13,9 13,1 14,4 17,2 8 5 14 7 W 1015,7 4,2 1,2
27.05.2019 03:00:00 13,9 13,1 14,2 17,2 10 5 14 8 WSW 1016,3 5 0,0
27.05.2019 02:00:00 13,6 12,7 14,1 17,2 10 6 19 10 WSW 1016,7 37 0,0
27.05.2019 01:00:00 13,6 12,5 14,1 17,2 11 6 24 13 W 1017,2 7 0,0
27.05.2019 00:00:00 13,9 11,9 14,0 17,2 10 5 18 10 W 1017,6 19 0,0
26.05.2019 23:00:00 13,6 11,5 14,0 17,3 13 7 20 11 W 1018,0 36 0,0
26.05.2019 22:00:00 13,9 11,4 14,7 17,3 13 7 25 13 W 1018,1 38 0,0
26.05.2019 21:00:00 14,1 11,6 15,1 17,2 14 8 28 15 W 1018,2 39 0,0
26.05.2019 20:00:00 14,8 11,2 16,1 17,2 15 8 29 16 W 1018,3 60 0,0
26.05.2019 19:00:00 15,0 11,2 16,5 17,2 16 9 28 15 W 1018,6 60 0,0
26.05.2019 18:00:00 15,3 11,1 17,4 17,1 17 9 30 16 W 1018,9 59 0,0
26.05.2019 17:00:00 15,2 11,4 17,2 17,2 16 8 27 14 W 1019,3 60 0,0
26.05.2019 16:00:00 15,7 11,1 18,9 17,2 16 8 28 15 W 1019,6 59 0,0
26.05.2019 15:00:00 15,5 10,7 17,5 17,1 17 9 27 15 WNW 1019,9 57 0,0
26.05.2019 14:00:00 14,9 10,5 16,6 17,2 12 7 29 16 WNW 1020,2 59 0,0
26.05.2019 13:00:00 15,3 10,3 17,9 17,2 14 8 30 16 WNW 1020,5 57 0,0
26.05.2019 12:00:00 15,1 10,9 16,2 17,2 14 7 26 14 W 1020,7 60 0,0
26.05.2019 11:00:00 14,7 10,3 16,2 17,3 16 8 29 16 W 1020,8 56 0,0
26.05.2019 10:00:00 14,2 11,0 15,4 17,3 14 7 23 12 WNW 1021,0 57 0,0
26.05.2019 09:00:00 13,4 11,6 14,2 17,4 13 7 22 12 W 1021,0 60 0,0
26.05.2019 08:00:00 13,2 12,4 13,3 17,5 9 5 16 8 WNW 1021,0 29 0,0
26.05.2019 07:00:00 12,4 11,8 12,8 17,5 8 4 13 7 WNW 1020,7 19 0,0
26.05.2019 06:00:00 12,6 12,0 11,3 17,6 5 3 9 5 WNW 1020,8 11 0,0
26.05.2019 05:00:00 11,1 10,3 8,0 17,7 2 1 9 5 NE 1021,0 0,5 0,0
26.05.2019 04:00:00 10,4 9,6 7,8 17,7 3 2 8 5 NW 1021,2 0,4 0,0
26.05.2019 03:00:00 11,0 10,1 9,0 17,7 3 2 16 9 ENE 1021,2 0,2 0,0
26.05.2019 02:00:00 13,2 12,3 13,1 17,8 9 5 18 10 WNW 1021,6 18 0,0
26.05.2019 01:00:00 13,4 12,3 13,5 17,8 13 7 21 11 W 1021,9 20 0,0
26.05.2019 00:00:00 13,5 12,2 13,6 17,7 13 7 24 13 W 1022,2 34 0,0
25.05.2019 23:00:00 14,0 12,0 14,0 17,7 16 9 29 16 W 1022,1 44 0,0
25.05.2019 22:00:00 14,8 11,6 14,9 17,6 21 12 32 17 W 1021,6 46 0,0
25.05.2019 21:00:00 16,0 11,4 17,4 17,5 17 9 34 18 W 1021,5 20 0,0
25.05.2019 20:00:00 17,0 11,0 20,5 17,5 19 11 31 17 WNW 1021,4 51 0,0
25.05.2019 19:00:00 18,3 11,4 23,2 17,4 19 11 30 16 W 1021,2 56 0,0
25.05.2019 18:00:00 18,7 10,8 20,2 17,3 18 10 31 17 W 1021,3 60 0,0
25.05.2019 17:00:00 18,4 10,5 22,4 17,3 14 7 27 14 WNW 1021,5 20 0,0
25.05.2019 16:00:00 17,5 9,6 21,4 17,2 14 8 29 16 NW 1021,7 57 0,0
25.05.2019 15:00:00 17,0 11,0 20,3 17,2 5 3 15 8 NNW 1022,1 60 0,0
25.05.2019 14:00:00 16,8 10,6 20,7 17,2 7 4 16 9 N 1022,4 60 0,0
25.05.2019 13:00:00 16,5 10,6 20,0 17,2 9 5 22 12 NNW 1022,5 49 0,0
25.05.2019 12:00:00 15,2 10,2 18,6 17,3 13 7 21 12 NNW 1022,6 54 0,0
25.05.2019 11:00:00 14,7 10,1 19,3 17,4 12 6 24 13 NNW 1022,7 20 0,0
25.05.2019 10:00:00 13,9 9,9 16,0 17,4 14 8 27 14 NNW 1022,4 51 0,0
25.05.2019 09:00:00 12,8 10,2 14,0 17,5 11 6 27 14 NNW 1022,1 52 0,0
25.05.2019 08:00:00 11,9 9,8 11,6 17,6 9 5 20 11 NW 1021,7 51 0,0
25.05.2019 07:00:00 10,9 9,3 10,4 17,7 7 4 16 9 WNW 1021,5 51 0,0
25.05.2019 06:00:00 10,8 9,1 10,5 17,8 10 5 21 11 WNW 1021,1 56 0,0
25.05.2019 05:00:00 11,1 9,2 10,6 17,8 9 5 18 10 WNW 1020,9 60 0,0
25.05.2019 04:00:00 11,5 9,4 11,1 17,9 8 5 19 10 WNW 1021,1 60 0,0
25.05.2019 03:00:00 12,0 9,6 11,5 17,9 10 5 19 10 NNW 1021,2 60 0,0
25.05.2019 02:00:00 12,3 10,0 8,5 17,9 9 5 15 8 NNW 1021,0 56 0,0
25.05.2019 01:00:00 12,3 9,3 9,3 17,9 5 3 14 7 NNW 1021,0 60 0,0
25.05.2019 00:00:00 12,9 9,3 12,0 17,9 9 5 19 10 N 1020,9 60 0,0
24.05.2019 23:00:00 13,9 9,1 12,6 17,8 7 4 20 11 N 1020,7 60 0,0
24.05.2019 22:00:00 15,5 8,7 15,8 17,8 14 8 27 14 N 1019,9 60 0,0
24.05.2019 21:00:00 17,0 9,4 18,1 17,7 13 7 27 15 N 1019,4 60 0,0
24.05.2019 20:00:00 17,5 9,6 18,8 17,5 17 9 30 16 N 1019,0 60 0,0
24.05.2019 19:00:00 18,8 8,4 21,1 17,4 18 10 31 17 N 1018,7 60 0,0
24.05.2019 18:00:00 19,9 9,7 21,9 17,3 16 9 33 18 NNW 1018,8 57 0,0
24.05.2019 17:00:00 20,0 8,0 22,3 17,1 15 8 35 19 NNW 1018,8 60 0,0
24.05.2019 16:00:00 20,2 8,2 22,2 17,0 16 9 30 16 N 1019,0 21 0,0
24.05.2019 15:00:00 19,4 8,1 25,4 16,9 16 9 34 18 N 1019,3 55 0,0
24.05.2019 14:00:00 19,6 8,6 27,4 16,9 15 8 31 17 N 1019,3 20 0,0
24.05.2019 13:00:00 18,3 9,4 26,9 16,9 16 8 27 15 N 1019,4 20 0,0
24.05.2019 12:00:00 17,0 8,4 24,8 17,0 17 9 31 17 NNW 1019,8 30 0,0
24.05.2019 11:00:00 16,5 8,5 23,9 17,1 14 7 30 16 NNW 1019,5 22 0,0
24.05.2019 10:00:00 14,7 8,0 20,3 17,1 18 10 29 16 N 1019,4 18 0,0
24.05.2019 09:00:00 13,2 8,5 15,5 17,2 14 8 24 13 N 1019,1 15 0,0
24.05.2019 08:00:00 11,0 7,9 9,9 17,3 10 6 17 9 N 1019,0 21 0,0
24.05.2019 07:00:00 9,6 7,2 8,8 17,3 10 5 16 9 N 1018,5 20 0,0
24.05.2019 06:00:00 9,6 6,9 8,8 17,4 11 6 21 11 N 1017,8 41 0,0
24.05.2019 05:00:00 9,7 6,8 8,9 17,4 8 5 20 11 N 1017,7 31 0,0
24.05.2019 04:00:00 10,5 7,0 10,3 17,5 11 6 23 12 NNE 1017,3 58 0,0
24.05.2019 03:00:00 11,0 7,7 10,5 17,5 10 5 17 9 N 1017,4 60 0,0
24.05.2019 02:00:00 12,1 8,2 11,4 17,5 10 5 23 13 N 1017,6 59 0,0
24.05.2019 01:00:00 13,6 8,2 13,4 17,5 12 7 26 14 N 1017,5 60 0,0
24.05.2019 00:00:00 14,3 10,7 14,6 17,5 14 7 25 14 N 1017,4 56 0,0
23.05.2019 23:00:00 15,7 11,1 15,8 17,4 10 5 19 11 WNW 1017,3 52 0,0
23.05.2019 22:00:00 16,3 10,6 16,6 17,3 15 8 23 12 W 1017,0 50 0,0
23.05.2019 21:00:00 17,1 10,7 16,0 17,2 10 6 21 11 W 1016,7 60 0,0
23.05.2019 20:00:00 17,6 12,1 16,0 17,1 14 8 25 14 WSW 1016,5 24 0,2
23.05.2019 19:00:00 19,9 10,3 21,6 17,0 14 8 21 11 W 1016,3 49 0,0
23.05.2019 18:00:00 20,8 9,4 23,6 16,9 12 6 22 12 SSW 1016,2 53 0,0
23.05.2019 17:00:00 21,0 9,3 24,2 16,8 16 9 26 14 SSW 1016,4 56 0,0
23.05.2019 16:00:00 22,2 8,0 25,9 16,7 14 7 22 12 SSW 1016,6 60 0,0
23.05.2019 15:00:00 21,8 8,7 29,0 16,7 15 8 22 12 SSW 1016,9 60 0,0
23.05.2019 14:00:00 21,6 8,8 24,0 16,6 13 7 21 12 SSW 1017,2 60 0,0
23.05.2019 13:00:00 19,3 10,3 23,3 16,7 12 7 22 12 SSW 1017,7 20 0,0
23.05.2019 12:00:00 20,3 10,1 23,6 16,7 12 7 22 12 S 1017,9 60 0,0
23.05.2019 11:00:00 19,3 12,8 23,8 16,8 4 2 11 6 SSW 1018,0 20 0,0
23.05.2019 10:00:00 17,0 11,7 22,8 16,9 4 2 11 6 SE 1018,0 8 0,0
23.05.2019 09:00:00 14,5 13,2 13,6 16,9 4 2 7 4 E 1017,9 7 0,0
23.05.2019 08:00:00 11,5 10,7 6,8 17,0 2 1 8 4 ENE 1017,9 7 0,0
23.05.2019 07:00:00 9,9 9,0 5,1 17,1 3 1 7 4 N 1017,7 0,2 0,0
23.05.2019 06:00:00 9,7 8,6 5,5 17,2 0 0 6 3 N 1017,7 7 0,0
23.05.2019 05:00:00 10,8 9,4 6,8 17,3 3 2 7 4 NNW 1017,8 11 0,0
23.05.2019 04:00:00 11,0 9,9 6,8 17,3 2 1 6 3 NE 1018,0 13 0,0
23.05.2019 03:00:00 10,9 9,7 7,1 17,3 2 1 4 2 E 1018,1 9 0,0
23.05.2019 02:00:00 11,0 9,3 7,9 17,3 2 1 5 3 NE 1018,5 11 0,0
23.05.2019 01:00:00 11,6 9,5 8,0 17,3 3 1 6 3 N 1018,9 14 0,0
23.05.2019 00:00:00 13,1 9,3 8,6 17,3 0 0 5 3 N 1019,0 20 0,0
22.05.2019 23:00:00 15,0 9,8 9,7 17,2 3 2 10 5 N 1019,2 20 0,0
22.05.2019 22:00:00 16,7 9,4 12,8 17,1 7 4 13 7 W 1019,1 4,9 0,0
22.05.2019 21:00:00 17,8 9,4 17,5 17,0 11 6 22 12 WSW 1019,1 57 0,0
22.05.2019 20:00:00 19,9 9,2 22,9 16,8 16 8 23 12 WSW 1019,2 20 0,0
22.05.2019 19:00:00 20,4 9,6 26,0 16,6 15 8 23 12 SSW 1019,1 15 0,0
22.05.2019 18:00:00 20,6 9,8 26,7 16,4 17 9 25 13 SSW 1019,3 14 0,0
22.05.2019 17:00:00 20,5 10,3 27,5 16,3 19 11 28 15 SSW 1019,8 12 0,0
22.05.2019 16:00:00 20,6 10,4 29,0 16,2 18 10 23 12 SSW 1020,0 20 0,0
22.05.2019 15:00:00 21,0 9,9 28,5 16,1 15 8 24 13 SSW 1020,3 28 0,0
22.05.2019 14:00:00 20,2 11,9 26,0 16,1 19 10 27 15 SSW 1020,5 19 0,0
22.05.2019 13:00:00 19,9 12,4 28,2 16,1 14 7 24 13 SSW 1020,7 20 0,0
22.05.2019 12:00:00 19,6 12,1 26,9 16,1 5 3 14 8 ESE 1020,7 18 0,0
22.05.2019 11:00:00 18,0 11,5 24,8 16,2 10 5 15 8 SE 1020,6 15 0,0
22.05.2019 10:00:00 16,7 11,8 18,9 16,2 6 3 15 8 E 1020,6 18 0,0
22.05.2019 09:00:00 13,6 10,4 16,4 16,4 10 6 15 8 ENE 1020,3 18 0,0
22.05.2019 08:00:00 10,5 9,1 5,8 16,4 4 2 12 6 E 1020,4 10 0,0
22.05.2019 07:00:00 8,5 7,1 4,3 16,5 5 3 11 6 NNE 1020,1 14 0,0
22.05.2019 06:00:00 9,2 7,6 4,4 16,6 5 3 11 6 N 1020,2 14 0,0
22.05.2019 05:00:00 9,5 7,8 5,2 16,7 8 4 12 6 NNE 1020,3 20 0,0
22.05.2019 04:00:00 9,6 7,9 5,6 16,7 5 3 12 7 NNE 1020,5 20 0,0
22.05.2019 03:00:00 10,3 8,9 8,1 16,7 7 4 10 6 NNE 1020,5 16 0,0
22.05.2019 02:00:00 11,1 9,5 7,9 16,7 8 4 12 6 N 1020,5 19 0,0
22.05.2019 01:00:00 12,0 10,1 9,0 16,7 5 3 11 6 N 1020,6 19 0,0
22.05.2019 00:00:00 13,4 10,4 12,2 16,6 6 3 16 8 WNW 1020,5 34 0,0
21.05.2019 23:00:00 14,0 10,6 13,2 16,6 10 5 19 11 WNW 1020,5 37 0,0
21.05.2019 22:00:00 14,5 10,3 14,2 16,4 13 7 22 12 WNW 1020,0 48 0,0
21.05.2019 21:00:00 16,0 10,3 16,6 16,3 15 8 27 15 WNW 1019,6 53 0,0
21.05.2019 20:00:00 17,6 10,2 19,9 16,1 18 10 29 15 WNW 1019,4 58 0,0
21.05.2019 19:00:00 18,8 10,6 20,6 15,9 15 8 27 15 WNW 1019,0 60 0,0
21.05.2019 18:00:00 19,4 11,4 21,8 15,7 14 8 24 13 WSW 1019,2 20 0,0
21.05.2019 17:00:00 19,6 11,4 24,4 15,6 5 3 20 11 S 1019,4 20 0,0
21.05.2019 16:00:00 19,2 9,4 23,6 15,5 6 4 19 10 NW 1019,5 18 0,0
21.05.2019 15:00:00 18,0 10,1 21,5 15,5 10 6 21 11 NNW 1019,7 19 0,0
21.05.2019 14:00:00 17,3 10,7 22,2 15,5 7 4 20 11 N 1019,7 16 0,0
21.05.2019 13:00:00 15,3 12,6 19,7 15,5 6 3 16 9 ENE 1019,8 8 0,0
21.05.2019 12:00:00 12,2 11,6 15,3 15,5 6 4 16 9 NNE 1019,9 4,4 0,0
21.05.2019 11:00:00 11,1 10,6 13,5 15,6 8 5 16 8 N 1019,6 2,2 0,0
21.05.2019 10:00:00 10,2 9,7 11,9 15,7 8 5 18 10 N 1019,4 1,3 0,0
21.05.2019 09:00:00 9,8 9,3 10,1 15,7 7 4 16 8 NE 1019,0 0,5 0,0
21.05.2019 08:00:00 9,0 8,5 9,5 15,9 10 5 20 11 NE 1018,5 0,3 0,0
21.05.2019 07:00:00 8,7 8,1 6,9 16,0 10 5 16 9 NNE 1018,0 0,2 0,0
21.05.2019 06:00:00 8,5 7,9 6,4 16,0 7 4 12 6 N 1017,5 3,7 0,0
21.05.2019 05:00:00 8,8 8,0 4,8 16,1 6 4 11 6 N 1017,3 4,4 0,0

tt = Température de l'air
td = dewpoint
tt 5cm = Température de l'air 5cm
tt -20cm = Température de l'air -20cm
ff = Vitesse du vent
fx = gusts
dd = Direction du vent
ppp = reduced air pressure
vv = visibility
rr = Quantités de précipitations

stations d'obs. à proximité